This demonstration page uses our WeatherBlox Daily Observations layout. Learn more.

Left ArrowRight Arrow

Hourly Observations for June 1, 2021

Temp ( °F °C ) Dew Point ( °F °C ) Humidity (%) Winds ( mph kmh ) Pressure ( in mb ) Visibility ( mi km ) Precip ( " mm )
12:51 am 00:51 Clear 74 23.3 29 -1.7 19 19 VRB 3 6 29.85 1011 10 16 N/A
1:51 am 01:51 Clear 72 22.2 31 -0.6 22 22 SE 5 7 29.86 1011 10 16 N/A
2:51 am 02:51 Clear 70 21.1 30 -1.1 23 23 SE 6 9 29.87 1011 10 16 N/A
3:51 am 03:51 Clear 71 21.7 32 undefined 24 24 E 8 13 29.89 1012 10 16 N/A
4:51 am 04:51 Clear 68 20 35 1.7 30 30 SE 6 9 29.91 1013 10 16 N/A
5:51 am 05:51 Sunny 71 21.7 39 3.9 31 31 SE 7 11 29.93 1014 10 16 N/A
6:51 am 06:51 Sunny 74 23.3 47 8.3 38 38 ESE 7 11 29.94 1014 10 16 N/A
7:51 am 07:51 Sunny 77 25 49 9.4 37 37 S 5 7 29.94 1014 10 16 N/A
8:51 am 08:51 Sunny 81 27.2 47 8.3 30 30 SE 8 13 29.92 1013 10 16 N/A
9:51 am 09:51 Sunny 85 29.4 47 8.3 27 27 VRB 7 11 29.90 1012 10 16 N/A
10:51 am 10:51 Sunny 88 31.1 47 8.3 24 24 VRB 5 7 29.88 1012 10 16 N/A
11:51 am 11:51 Sunny 90 32.2 44 6.7 20 20 SW 8 13 29.85 1011 10 16 N/A
12:51 pm 12:51 Sunny 93 33.9 40 4.4 16 16 SW 8 13 29.81 1010 10 16 N/A
1:51 pm 13:51 Sunny 95 35 36 2.2 13 13 WSW 8 13 29.78 1009 10 16 N/A
2:42 pm 14:42 Sunny with Nearby Thunderstorms 92 33.3 38 3.3 15 15 NNE 23 37 29.69 1005 10 16 N/A
2:51 pm 14:51 Sunny 93 33.9 39 3.9 15 15 NNE 26 43 29.79 1009 10 16 N/A
3:51 pm 15:51 Sunny 92 33.3 38 3.3 15 15 NNE 26 43 29.78 1008 10 16 N/A
4:51 pm 16:51 Sunny 92 33.3 34 1.1 13 13 NE 15 24 29.78 1009 10 16 N/A
5:51 pm 17:51 Sunny 89 31.7 34 1.1 14 14 VRB 5 7 29.78 1008 10 16 N/A
6:51 pm 18:51 Sunny 88 31.1 34 1.1 15 15 WNW 7 11 29.78 1009 10 16 N/A
7:51 pm 19:51 Clear 86 30 34 1.1 15 15 N N/A 29.78 1009 10 16 N/A
8:51 pm 20:51 Clear 79 26.1 30 -1.1 17 17 ENE 3 6 29.81 1009 10 16 N/A
9:51 pm 21:51 Clear 78 25.6 34 1.1 20 20 E 7 11 29.81 1010 10 16 N/A
10:51 pm 22:51 Clear 75 23.9 36 2.2 24 24 ESE 8 13 29.81 1009 10 16 N/A
11:51 pm 23:51 Clear 76 24.4 38 3.3 25 25 SSE 7 11 29.80 1009 10 16 N/A

Powered by AerisWeather